RH
21 20 19 18 17 17 17 16 16 16 15 15 14 14 14 13 13 13 14 14 15 15 15 15 15 16 16 16 16 16 17 17 18 18 18 18 18 19 20 19 19 18 18 18 18 18 18 17 16 15 14 14
23 21 20 19 19 19 18 18 18 17 17 16 16 15 15 15 15 16 16 16 17 16 17 17 17 17 17 17 17 17 18 18 20 20 20 20 20 20 20 20 20 19 19 19 19 19 18 18 17 16 15 15
24 23 21 21 20 20 20 20 19 18 18 17 17 17 17 18 18 18 18 18 18 18 18 18 18 18 18 18 18 18 19 20 20 22 23 22 22 22 21 21 22 21 21 20 20 19 19 18 18 17 16 16
25 24 23 22 22 22 22 21 20 20 19 19 19 19 19 20 20 21 21 21 20 20 20 20 20 19 19 18 19 19 20 21 21 23 24 24 24 23 23 22 22 22 22 22 21 21 20 20 19 19 18 17
26 25 24 24 23 23 23 23 22 22 21 21 21 21 21 21 22 22 22 23 22 22 22 21 21 20 20 19 19 20 21 22 23 24 25 26 26 25 24 24 24 23 23 23 23 23 22 21 20 20 19 18
28 27 26 26 25 25 25 25 24 24 23 23 23 23 23 23 23 24 24 24 24 24 23 22 22 21 21 20 20 20 21 22 23 25 26 26 27 26 26 25 25 24 24 24 24 24 24 23 22 22 21 20
29 29 28 28 28 28 27 27 27 26 26 26 26 25 25 25 25 25 26 26 26 25 25 24 23 22 21 21 21 21 22 23 24 25 26 27 28 28 27 26 26 26 26 25 25 25 25 25 24 23 23 22
34 33 33 33 32 31 30 28 28 28 28 27 28 28 27 27 27 27 27 27 27 26 26 26 24 23 22 21 21 22 24 24 25 25 26 27 28 29 29 28 27 27 27 27 27 26 26 27 26 25 24 24
40 40 40 40 39 38 35 32 30 29 29 29 29 29 29 29 29 28 28 28 28 28 28 27 26 25 23 22 22 23 25 26 27 26 26 26 27 29 30 30 29 29 29 29 29 28 28 28 28 27 26 25
45 44 44 45 45 44 43 40 37 34 32 30 30 31 30 30 30 30 30 30 30 30 29 29 28 27 25 24 23 24 25 27 29 29 28 27 26 27 29 31 32 31 30 30 31 31 30 30 30 29 28 27
47 47 47 47 48 48 48 48 46 43 40 36 34 32 31 31 31 31 31 31 31 31 31 31 30 29 28 26 25 25 26 27 29 31 31 29 27 26 28 31 33 34 32 31 31 32 33 32 32 31 30 29
50 50 51 51 51 51 51 52 52 52 50 47 43 39 35 33 32 32 32 33 33 32 32 32 32 31 30 29 28 27 27 28 29 31 33 33 31 29 28 28 31 34 35 35 33 33 34 34 34 33 32 31
55 55 55 55 55 55 55 55 56 56 56 54 52 48 43 38 35 34 34 34 34 34 34 34 33 33 32 31 31 30 30 29 30 31 33 35 36 34 33 31 29 30 32 35 36 35 35 35 35 35 34 33
60 60 59 59 59 59 59 59 59 60 59 59 57 54 50 45 41 38 37 36 36 36 36 36 35 35 34 33 33 32 32 32 32 32 33 36 38 39 38 37 35 33 31 32 33 36 36 36 36 36 36 35
60 61 61 61 61 62 62 62 62 62 62 61 61 59 55 52 48 44 42 40 39 38 38 38 38 37 36 36 35 35 35 34 34 34 35 36 39 41 42 42 41 40 38 35 33 33 35 37 38 37 37 37
57 58 58 58 59 60 62 63 63 64 64 64 64 63 61 60 57 55 52 49 47 44 43 42 41 40 39 39 38 38 39 39 39 39 39 39 40 42 44 45 44 44 43 41 39 36 35 36 38 39 39 39
49 50 50 51 52 54 56 58 60 61 62 64 64 65 64 64 64 63 62 60 59 56 54 52 51 50 48 48 47 47 47 47 48 47 47 47 46 47 47 48 48 47 45 43 42 41 38 37 38 40 40 40
32 34 35 36 38 40 43 47 50 52 55 57 59 61 62 64 64 65 65 65 64 64 63 62 61 61 60 60 59 59 59 58 58 57 56 56 55 55 54 53 52 50 49 47 44 43 42 40 39 40 41 41
18 20 21 22 24 25 27 30 33 36 40 43 46 51 55 59 63 65 66 66 65 65 65 64 65 66 66 67 67 67 67 66 65 65 64 63 61 61 60 59 57 55 52 50 48 45 44 43 42 42 42 42
12 13 14 15 16 16 17 18 20 22 24 27 30 34 40 46 54 59 63 65 66 66 66 65 65 66 67 67 68 68 68 68 67 66 65 65 64 62 61 61 60 59 57 54 52 49 47 45 44 43 43 43
11 11 12 12 13 13 16 18 20 22 24 26 27 29 31 35 40 45 50 55 58 60 63 65 65 65 65 65 65 66 66 65 64 63 61 61 61 60 59 58 58 58 58 57 55 54 51 49 46 45 45 45
11 11 11 12 12 13 16 19 21 24 27 30 33 35 37 38 40 41 44 46 48 51 56 61 64 65 65 64 65 66 67 67 66 64 62 59 58 58 56 55 55 54 54 54 54 54 54 53 50 48 47 47
12 13 13 14 16 18 20 21 23 27 31 33 37 41 46 49 51 51 50 49 50 51 52 55 58 61 62 62 61 63 65 66 66 65 64 62 61 60 59 56 54 53 52 51 51 52 53 54 54 53 51 50
18 20 22 24 27 31 33 33 33 34 35 35 35 39 42 45 47 48 48 47 48 49 48 49 50 52 54 55 55 55 56 58 60 61 60 60 60 60 61 60 59 57 54 51 50 49 49 50 52 53 55 54
20 23 27 30 31 34 36 35 33 32 30 28 27 27 28 28 29 30 31 31 32 33 33 34 35 37 39 41 42 42 44 46 50 52 54 54 55 55 56 58 59 59 58 55 52 49 48 48 49 50 52 53
19 20 22 24 24 24 27 27 25 25 24 24 24 24 24 24 24 24 23 23 23 23 24 23 24 24 25 26 27 28 30 32 34 38 42 45 47 49 50 52 54 56 56 55 54 52 48 48 49 51 51 52
20 20 20 21 21 22 23 23 23 23 24 25 26 26 27 28 28 28 27 27 27 26 25 25 25 24 24 23 23 23 23 23 24 25 27 31 36 40 43 47 50 52 53 53 53 52 50 48 47 48 50 52
21 21 21 22 22 23 23 23 23 24 25 26 27 28 29 30 31 31 31 31 31 30 30 29 29 28 28 27 26 25 24 23 22 22 22 23 25 29 33 38 42 47 52 52 52 51 51 50 47 46 46 47
22 23 23 24 24 24 24 25 25 25 27 28 29 29 30 31 32 33 33 34 34 33 33 33 32 32 31 30 29 28 27 26 24 24 23 23 23 24 26 29 32 39 46 50 52 53 52 51 50 48 47 45
24 24 25 25 26 26 25 25 25 26 27 28 28 29 29 30 32 33 34 35 35 34 34 34 34 34 33 32 31 30 29 28 27 26 25 24 23 23 24 25 26 30 38 44 50 53 53 54 54 51 50 49
26 26 27 27 26 25 24 24 25 27 28 29 30 30 31 32 32 34 35 36 36 35 35 34 34 34 33 33 32 31 30 29 28 27 26 25 24 24 24 24 24 26 30 37 44 49 51 53 56 55 53 53
Wind_Speed
24 24 24 24 24 25 25 26 26 26 26 26 26 26 27 28 29 29 30 30 30 30 29 29 29 29 29 29 28 28 27 28 28 28 27 27 26 26 26 27 27 26 26 25 25 25 25 25 24 24 25 25
24 24 25 26 26 26 27 27 26 26 26 26 25 25 26 27 28 29 30 30 30 30 30 29 29 29 29 29 29 29 29 28 28 28 28 28 27 27 27 27 28 28 27 27 27 27 27 26 26 26 26 26
25 25 26 27 27 28 28 27 27 26 26 26 25 26 26 27 28 29 30 30 30 30 30 30 29 29 30 30 30 30 30 30 29 29 29 29 28 28 28 28 28 29 29 29 29 29 28 28 28 27 27 27
27 27 28 29 29 29 29 28 28 28 27 27 27 28 28 28 29 30 30 30 30 30 30 30 30 30 31 31 31 30 30 30 30 30 30 30 30 29 29 30 30 30 30 30 30 30 30 30 29 29 29 28
28 29 29 30 31 31 30 30 30 29 29 29 30 30 30 30 30 31 31 31 31 31 31 31 31 31 31 31 31 31 31 31 31 31 31 31 31 31 31 31 31 32 32 31 31 31 31 31 31 31 31 30
30 31 31 32 33 32 32 32 32 31 31 31 32 32 32 32 32 32 32 32 32 32 32 32 32 32 32 32 32 32 32 32 32 32 32 33 32 32 32 32 33 33 33 33 33 33 33 33 33 32 32 32
32 33 33 34 34 34 33 33 33 33 33 33 33 33 33 33 33 33 34 33 33 33 33 33 33 34 34 34 33 33 33 33 33 33 33 34 34 34 34 34 34 35 35 35 35 35 35 34 34 34 34 34
32 32 33 34 34 34 34 34 34 34 34 34 35 35 35 35 35 35 35 35 35 35 35 35 35 35 35 35 35 35 35 34 35 35 35 35 35 35 35 36 36 36 37 37 37 37 37 37 36 36 36 36
29 30 31 31 32 33 33 33 34 34 34 35 36 36 37 37 37 37 36 36 36 36 36 36 36 36 37 37 37 36 36 36 36 36 37 37 37 36 37 37 38 38 38 38 39 39 39 39 39 39 39 39
29 30 30 31 31 32 33 33 33 34 34 35 35 36 37 37 38 38 38 38 38 37 37 37 37 37 38 38 38 38 37 37 37 37 38 38 38 38 38 39 39 40 40 40 40 41 41 41 41 41 41 41
31 32 33 34 34 35 35 35 35 36 36 36 37 37 38 38 38 39 39 39 39 39 39 39 39 39 39 39 39 39 39 38 38 38 38 39 39 40 40 40 41 41 42 42 42 42 42 43 43 43 43 43
34 34 35 36 37 38 38 38 38 38 39 39 39 40 40 40 40 40 41 41 41 41 41 41 41 41 41 40 40 41 41 40 39 39 40 40 40 41 41 41 42 43 43 44 44 44 44 45 45 46 46 46
34 35 36 37 37 38 38 39 39 40 40 41 41 41 42 42 42 43 43 43 43 43 44 44 44 44 43 43 42 42 42 42 42 41 41 41 42 42 42 42 43 43 44 45 46 46 46 46 47 47 47 47
34 35 35 36 36 37 37 38 38 39 40 41 41 42 43 43 44 44 44 45 45 45 46 46 46 46 46 46 45 45 44 44 44 43 43 43 43 43 44 44 44 45 45 45 46 47 48 48 48 49 49 49
33 34 34 34 34 35 35 36 36 36 37 38 40 41 42 43 44 45 46 46 46 47 47 48 48 48 48 48 47 47 47 46 46 46 45 45 45 45 45 45 46 46 46 46 47 48 48 49 49 50 50 50
30 31 32 33 33 33 34 34 35 36 36 37 38 39 40 42 43 45 46 46 47 48 48 48 49 49 49 49 48 49 48 48 47 47 47 46 46 46 46 46 46 47 47 47 47 48 49 49 50 50 51 51
29 29 30 31 32 32 33 34 35 35 36 36 37 38 39 40 42 43 44 45 46 47 48 49 49 49 49 49 49 49 49 49 49 48 48 48 47 47 47 47 47 47 47 47 47 48 48 49 49 50 50 51
28 29 30 31 31 32 33 34 35 36 36 37 38 39 39 40 41 42 43 44 45 46 48 48 49 49 50 50 50 50 50 50 50 49 49 49 49 48 48 48 47 47 47 47 47 48 48 48 49 49 50 50
28 29 30 31 32 33 33 34 35 36 37 38 39 40 41 41 42 43 44 45 45 46 47 48 49 50 50 50 50 51 51 51 51 51 51 51 51 50 50 49 49 49 48 48 48 48 48 48 49 49 49 50
30 31 32 33 34 35 36 36 37 38 39 40 41 41 42 43 44 44 45 46 46 47 48 48 49 50 50 51 51 51 51 52 52 52 52 52 52 52 52 51 51 51 50 50 49 49 49 49 49 50 50 50
32 33 34 35 37 38 39 40 40 41 41 42 43 44 44 45 46 46 47 48 48 49 49 49 50 50 50 51 51 52 52 52 53 53 53 52 53 53 53 53 53 53 52 52 51 51 51 50 51 51 51 51
32 34 35 37 39 40 42 43 44 45 45 46 47 47 48 48 49 49 50 50 51 51 52 52 52 52 52 52 52 53 53 53 53 54 54 53 53 53 54 54 54 54 54 53 53 52 52 52 52 52 52 52
33 35 36 38 39 41 43 44 46 47 48 50 50 51 52 53 53 54 54 55 55 55 55 56 56 56 56 56 56 55 55 55 55 55 54 54 53 52 53 54 54 54 54 54 53 53 53 53 53 54 54 54
34 36 37 38 40 41 42 44 46 47 49 51 52 53 55 56 57 58 58 59 59 59 59 59 59 60 60 61 60 60 59 59 59 58 57 56 55 54 53 53 54 54 54 54 53 53 53 53 54 54 55 56
36 37 39 40 41 43 44 45 47 49 50 51 53 54 55 56 57 59 60 60 61 61 61 61 61 61 62 62 63 63 63 63 62 62 61 60 59 58 57 55 55 55 55 55 54 53 52 52 53 54 55 56
38 39 41 42 43 45 46 47 49 50 51 52 52 53 54 54 55 57 58 59 60 61 61 61 61 61 61 61 62 62 63 63 63 63 63 63 62 62 61 59 58 58 58 57 56 55 54 52 52 52 53 55
39 41 42 43 45 46 47 48 49 50 51 52 53 53 54 54 54 55 56 57 58 59 60 60 59 59 59 59 59 60 60 61 61 62 62 63 63 63 63 62 62 61 61 61 59 59 57 55 54 52 52 53
39 41 42 43 45 46 47 48 49 50 51 52 53 53 54 54 54 55 55 55 56 56 57 57 57 57 57 56 56 57 57 58 58 59 59 60 61 61 62 62 62 62 62 63 62 62 61 59 58 56 54 53
39 41 42 44 45 46 47 48 49 50 50 51 52 52 53 53 54 54 54 54 55 55 55 55 55 54 54 54 54 54 54 55 55 55 56 57 57 58 59 60 60 60 60 62 62 63 63 63 62 61 58 56
40 41 42 43 45 46 47 48 48 48 49 49 50 51 51 52 53 53 53 54 54 54 54 54 53 52 52 52 52 52 52 53 53 53 53 54 54 55 56 57 57 58 57 58 59 61 62 62 63 64 62 62
40 41 42 43 45 46 47 47 47 47 47 47 48 49 50 50 51 51 52 53 53 54 53 53 53 52 51 51 51 51 51 51 51 52 52 52 52 52 53 53 54 55 55 54 54 56 58 59 61 63 63 64
Wind_Direction
281 283 284 283 283 282 282 281 281 281 281 282 282 282 281 281 280 279 279 278 278 277 277 277 277 276 275 275 273 271 269 269 268 267 266 265 265 265 267 268 268 266 266 267 267 267 267 267 267 266 265 264
282 283 282 281 281 280 281 282 283 284 284 284 283 281 279 278 279 279 279 279 279 279 279 279 278 277 277 276 275 274 272 270 269 269 268 267 266 265 266 268 270 269 268 267 267 267 267 267 266 265 264 264
282 282 282 282 282 283 284 286 287 287 287 286 285 283 281 280 280 280 279 280 280 279 279 278 278 277 277 276 275 275 274 272 271 270 269 268 267 266 265 266 267 268 269 268 267 267 266 266 266 265 264 263
285 285 285 284 284 285 286 287 287 287 287 287 287 286 285 284 283 282 282 282 281 280 279 278 278 277 276 275 275 274 273 272 271 269 268 267 266 265 264 264 264 265 266 267 267 266 266 266 265 265 263 262
285 284 283 283 283 283 283 283 283 284 284 284 284 285 285 285 284 284 284 284 283 283 282 282 280 279 277 276 274 273 272 271 271 269 268 266 265 265 264 264 264 264 264 265 265 265 265 265 265 264 263 262
287 286 285 285 285 285 285 285 285 285 285 285 285 285 286 286 286 285 285 284 284 283 282 282 282 281 280 278 276 275 273 272 271 270 269 268 267 266 265 264 264 264 264 264 264 264 264 264 264 264 263 262
295 294 293 292 291 290 289 288 288 288 287 287 287 287 287 288 288 287 287 286 285 284 283 281 281 280 280 279 279 278 276 275 274 272 271 270 268 267 266 265 265 265 265 265 264 264 264 263 263 263 262 262
301 300 299 297 296 295 293 292 291 290 289 289 288 288 288 289 288 288 288 288 287 285 284 282 281 280 279 278 278 278 278 278 277 275 273 271 270 268 267 266 265 265 265 265 265 265 264 264 263 263 262 261
303 302 300 300 299 298 296 294 293 292 291 291 291 291 290 290 290 289 289 288 287 286 284 283 281 280 278 278 277 277 277 277 277 276 275 274 272 270 268 267 265 264 264 265 265 265 265 264 263 263 262 262
303 302 301 300 300 299 297 296 294 292 292 291 291 291 291 291 290 290 289 289 288 286 285 283 282 280 279 278 277 277 276 276 276 275 275 274 273 271 270 268 266 265 263 263 264 264 264 264 263 263 263 262
305 304 303 303 303 302 301 299 297 296 294 293 291 291 290 290 290 290 290 290 289 288 287 285 284 282 281 279 278 277 276 275 275 274 273 272 272 271 270 269 267 266 264 263 262 262 263 263 263 262 262 262
310 309 308 307 305 304 304 303 302 300 299 297 295 293 292 291 290 290 290 289 289 289 288 287 286 284 283 281 279 278 277 275 275 274 273 271 270 270 269 268 267 266 265 264 263 261 261 261 261 262 262 261
312 311 310 309 307 306 306 305 304 303 301 300 298 296 295 293 292 291 291 290 290 290 289 289 288 286 285 284 282 281 279 278 276 275 274 272 270 268 268 267 267 266 265 265 264 262 260 260 260 260 261 261
312 311 310 309 308 308 307 306 305 303 302 301 300 298 297 296 294 293 292 292 291 291 291 290 290 289 288 287 286 284 283 281 279 277 275 274 272 270 268 267 267 266 265 265 264 263 261 260 259 259 259 260
311 310 310 309 309 308 307 306 305 304 302 301 300 299 298 297 296 295 294 293 292 292 291 291 291 290 290 289 288 287 286 284 282 280 278 276 274 272 270 269 268 267 266 265 264 263 262 261 260 259 259 259
310 310 310 310 310 309 309 308 306 305 303 302 300 299 298 297 296 296 295 295 294 293 293 292 292 291 291 290 290 289 288 286 284 282 280 278 276 274 272 271 270 269 267 266 265 264 263 262 261 259 259 259
310 309 309 309 309 308 308 307 306 305 304 303 302 300 299 297 296 296 295 295 294 294 293 292 292 291 291 290 290 289 288 287 285 284 282 280 279 277 275 273 271 270 269 268 267 265 263 262 261 260 259 259
310 310 309 308 308 307 306 305 305 304 303 302 301 301 300 298 297 296 296 295 294 294 293 292 292 291 291 290 289 289 288 286 285 284 282 281 280 278 277 275 273 271 270 269 268 267 266 264 262 260 259 258
312 311 310 309 308 307 306 305 304 303 302 302 301 301 300 299 298 297 296 295 294 293 293 292 292 291 291 290 289 288 287 286 285 284 282 281 280 278 277 276 274 272 270 268 267 267 266 265 263 261 259 258
314 313 312 311 310 309 308 306 305 304 303 302 301 301 300 300 299 298 297 296 295 294 293 292 291 290 290 289 288 288 287 286 285 284 283 282 281 279 278 276 275 273 271 269 267 266 265 264 263 262 260 258
314 313 312 311 311 310 309 308 306 305 305 303 302 302 300 300 299 298 297 297 296 295 294 293 292 291 290 289 288 287 287 286 285 284 283 282 281 281 279 277 276 274 272 270 268 266 264 263 262 262 261 259
312 312 311 311 310 309 308 308 307 306 305 304 304 303 302 300 299 298 297 296 296 295 295 294 293 292 291 290 289 288 287 286 285 285 284 283 282 281 280 279 277 275 273 271 269 266 264 263 262 261 260 260
313 311 310 309 308 307 307 306 306 305 305 304 303 302 301 300 298 297 296 295 294 293 292 292 291 290 289 288 287 286 285 285 284 283 283 283 282 281 280 280 278 277 274 272 270 267 265 263 262 261 261 260
312 310 308 307 305 303 302 301 300 300 300 299 299 298 297 296 295 294 293 292 291 290 289 288 288 287 287 286 285 284 283 282 281 281 280 280 280 279 278 278 278 278 276 274 272 269 267 265 263 262 261 260
310 308 306 303 301 299 298 297 297 296 296 296 295 294 294 293 292 292 291 291 290 289 288 287 286 285 284 284 283 283 282 281 280 279 278 277 277 276 275 275 274 275 275 275 274 271 269 267 266 264 262 261
308 306 304 302 301 300 299 298 298 297 297 296 296 295 294 293 292 292 291 291 290 290 289 288 287 286 285 283 282 282 281 281 280 279 278 277 275 274 273 272 271 271 271 272 272 272 270 268 266 265 265 263
306 305 305 304 303 302 301 300 299 299 298 298 298 297 297 296 295 294 293 292 291 290 290 289 289 288 287 285 284 282 281 280 280 279 278 277 276 274 273 271 270 270 269 268 268 269 269 268 266 264 263 263
306 305 305 304 303 302 302 302 302 301 300 299 299 298 297 297 296 295 294 293 292 291 290 290 289 288 287 286 285 283 282 280 279 279 278 277 276 275 273 272 270 270 269 268 267 266 266 266 265 263 262 261
306 306 305 304 304 303 303 303 302 301 300 299 298 297 297 296 296 295 295 294 293 292 291 290 289 288 287 286 285 284 283 282 280 279 279 278 277 276 274 273 271 270 270 269 269 267 266 265 263 262 261 260
307 306 306 305 304 304 303 302 301 300 298 297 296 296 296 295 295 295 295 294 294 293 292 291 291 289 288 288 286 285 284 283 282 281 280 279 278 277 276 275 273 271 270 270 270 269 268 267 265 263 261 260
308 307 306 305 305 304 303 303 302 301 300 298 298 297 296 295 295 295 294 294 294 294 293 292 292 291 290 289 288 286 285 284 283 282 281 280 279 278 277 276 275 273 272 271 271 270 270 269 268 266 264 262